1491495696.92, -5.13287688258e-06, 0.000334177575337, 5.10240016876e-05, 0.54682682947, 0.00614760453735, -0.0107124801051, 0.837154626279
1491495696.95, 4.18916441036e-05, 0.000120616202459, 4.31473759231e-05, 0.54684190596, 0.00615077209469, -0.0107457499545, 0.837144328504
1491495696.98, -0.00394736005531, 0.00299169760132, -0.00407810193703, 0.545213718713, 0.00706658132873, -0.0109914109379, 0.838195235754
1491495697.01, -0.0038515957445, 0.00322340173255, -0.00415416175797, 0.545249968837, 0.00698184603351, -0.0109635471148, 0.838172730375
1491495697.04, -0.00373502971623, 0.00346219605267, -0.00422343748924, 0.54524866658, 0.00694373094603, -0.0109435671619, 0.838174155251
1491495697.07, 0.00627139785543, 0.00667609388864, -0.00273574143278, 0.546682957973, 0.00404273738646, -0.00953489778991, 0.837275632907
1491495697.1, 0.00615971957538, 0.00682634118401, -0.00272439755442, 0.546679062223, 0.00398837336654, -0.00952741425484, 0.837278522465
1491495697.13, 0.00605918929697, 0.00699388735684, -0.00271747243411, 0.546670733263, 0.00395814403914, -0.00953284173924, 0.837284042257
1491495697.16, 0.00595726852077, 0.00715650958959, -0.00267630604028, 0.546680204577, 0.00389865584592, -0.00951274952777, 0.837278365899
1491495697.19, 0.0062040131064, 0.00689321054853, -0.00362598291049, 0.546724798345, 0.00370190013137, -0.00938247206612, 0.837251610944
1491495697.22, 0.00608525326973, 0.00703716909997, -0.00362575204345, 0.546718270359, 0.00364428967479, -0.00938153243152, 0.837256136948
1491495697.25, 0.00595084192581, 0.00716719719107, -0.0036038648513, 0.546714068048, 0.00356490061473, -0.00935660744832, 0.837259501696
1491495697.28, 0.00674419396029, 0.00634358550545, -0.00346294508222, 0.546735380997, 0.00361290699927, -0.00939026185236, 0.837245001807
1491495697.31, 0.0067029608557, 0.00636129259811, -0.0034029428902, 0.546759253925, 0.00356765356785, -0.00935461025056, 0.837230005054
1491495697.34, 0.00665489095605, 0.00637047645118, -0.00333320570162, 0.546780839899, 0.00352086031283, -0.00932632838945, 0.837216421399
1491495697.37, 0.00700237790001, 0.00572432647889, -0.00308428237227, 0.54670830916, 0.00362947829713, -0.00938201957026, 0.837262700287
1491495697.4, 0.00701396139527, 0.00567409935189, -0.00298271095742, 0.546701411614, 0.00356312473504, -0.00936790700247, 0.837267647171
1491495697.43, 0.00703913273802, 0.00561181204898, -0.00286380455277, 0.546703320071, 0.00350101246615, -0.00936053977764, 0.837266745446
1491495697.46, 0.00706134191073, 0.00553862406872, -0.002742517121, 0.546698773199, 0.00344796904414, -0.00933774560856, 0.837270189007
1491495697.49, 0.0069739405311, 0.00736871315242, -0.00322659980216, 0.546658158563, 0.00353439326986, -0.0093519579432, 0.83729618811
1491495697.52, 0.00696401508215, 0.00750336320427, -0.00313515685336, 0.546650758917, 0.00347289758838, -0.00934247202278, 0.837301382403
1491495697.55, 0.00694278427437, 0.00764577758506, -0.00302917547961, 0.546670097775, 0.00341870661558, -0.00931540492541, 0.837289280879
1491495697.58, 0.00690948960271, 0.00777309264826, -0.00290149071323, 0.546682700874, 0.00336079823271, -0.00929714679038, 0.837281489501
1491495697.61, 0.00689113482818, 0.00469903593321, -0.00192236618894, 0.54662673512, 0.00349188845692, -0.0093628911218, 0.837316759319
1491495697.64, 0.00686872567191, 0.00454799317927, -0.00171444618638, 0.546665173571, 0.00341437096411, -0.00933684737481, 0.83729227475
1491495697.67, 0.0066153226242, 0.00566575544883, -0.00283010579656, 0.546703557514, 0.00345484093464, -0.00943069176937, 0.837265994967
1491495697.67, 0.0066153226242, 0.00566575544883, -0.00283010579656, 0.546703557514, 0.00345484093464, -0.00943069176937, 0.837265994967
1491495697.7, 0.00655772965633, 0.00558874178099, -0.00271644297925, 0.546717525018, 0.00341637049789, -0.00943265939839, 0.837257010235
1491495697.73, 0.00648107110052, 0.00548967282209, -0.00258652823239, 0.546731425192, 0.00335591038738, -0.00942986960707, 0.837248209393
1491495697.76, 0.00640312017099, 0.00538493710914, -0.00246666737389, 0.546727669626, 0.00332049881729, -0.00943627321335, 0.837250730845
1491495697.79, 0.00621474796938, 0.00530115919835, -0.00245256384926, 0.546684903831, 0.00342028444671, -0.00942381860415, 0.837278394097
1491495697.82, 0.00608787620565, 0.00519826568886, -0.00232859729257, 0.546695252698, 0.00335690505032, -0.00943561898116, 0.837271760518
1491495697.85, 0.0059501493396, 0.00509232289903, -0.00220437128265, 0.546668326576, 0.00334542756316, -0.00943918169091, 0.837289347049
1491495697.88, 0.00578433035688, 0.00496017976186, -0.00206174527204, 0.546632507965, 0.00331427116949, -0.00943652070589, 0.837312885915
1491495697.91, 0.00621180876266, 0.00459393397289, -0.00213125962907, 0.546486113858, 0.00343400087186, -0.00940818422911, 0.837408276212
1491495697.94, 0.00605845725902, 0.00444777054897, -0.00199417298439, 0.546507631806, 0.00340016297873, -0.00940355604721, 0.837394423437
1491495697.97, 0.00588884558282, 0.00429114357842, -0.00184582683751, 0.546522767938, 0.00338206183815, -0.00937915765023, 0.837384891901
1491495698.0, 0.00598868294251, 0.00404613636968, -0.00192832931879, 0.546554934924, 0.00343856079254, -0.00939063168, 0.837363538403
1491495698.03, 0.00581374295656, 0.00386236995097, -0.001764642114, 0.54654852146, 0.00338822671007, -0.00938680139942, 0.837367972619
1491495698.06, 0.00562039854999, 0.00367419416175, -0.00160409551224, 0.546517997104, 0.00336689988209, -0.00937370588738, 0.837388127731
1491495698.09, 0.00645525753312, 0.00316812873067, -0.00165014254818, 0.54642308237, 0.00348284133032, -0.00945661685293, 0.837448659482
1491495698.12, 0.00633295345482, 0.00293649153984, -0.00148787327227, 0.546376202816, 0.00348301512403, -0.00943752429609, 0.837479460487
1491495698.15, 0.00620230935687, 0.00270111565625, -0.00133313015636, 0.546373456082, 0.00346653796513, -0.0094227510472, 0.837481487178
1491495698.18, 0.00644773733591, 0.00274125604727, -0.00194328698124, 0.54637555979, 0.0035452757637, -0.00947892920142, 0.837479151135
1491495698.21, 0.00634344328119, 0.00250103021213, -0.00184013351955, 0.546377142566, 0.00354633669316, -0.00947583669409, 0.837478149026
1491495698.24, 0.00623106394324, 0.00225935183099, -0.00174495816845, 0.546387508556, 0.00353043093566, -0.00947104015645, 0.837471507545
1491495698.27, 0.00611142487615, 0.00201313983785, -0.00164713690636, 0.546382450714, 0.00351257401886, -0.00945802918921, 0.837475029514
1491495698.3, 0.00566736140198, 0.00300690305049, 0.000398136369969, 0.546296506228, 0.00434296291407, -0.0100357386092, 0.837520477306
1491495698.33, 0.00564906362909, 0.00275105782131, 0.000472241376383, 0.54630702102, 0.00432036748037, -0.0100386092484, 0.837513701102
1491495698.36, 0.00561739248028, 0.00248158480742, 0.000548299888052, 0.546295398102, 0.00430821649221, -0.0100474696735, 0.837521238917
1491495698.39, 0.00530378861288, 0.00446865521452, 0.000501670875067, 0.546224139563, 0.0042942578165, -0.00996371597487, 0.837568787069
1491495698.42, 0.0052198671423, 0.00435194063851, 0.000546808338601, 0.546211198918, 0.00424967640631, -0.00996587704907, 0.837577427896
1491495698.45, 0.00513856733968, 0.00424035984754, 0.000592822136065, 0.546215970629, 0.0042224470369, -0.00997576185213, 0.837574336132
1491495698.48, 0.00506351295744, 0.00411752082687, 0.000641979274512, 0.54621445007, 0.00420886502412, -0.00995770391711, 0.837575610988
1491495698.51, 0.00528297802389, 0.00499293623273, 0.0005717281113, 0.54619642087, 0.00419878358074, -0.00995764263949, 0.837587419556
1491495698.54, 0.00520730706412, 0.00491277527066, 0.000603111286718, 0.54618776809, 0.00418616271573, -0.00994956688491, 0.83759322117
1491495698.57, 0.00566068619112, 0.00536727991917, 0.000444059104021, 0.546183800594, 0.00422122149164, -0.0099433831262, 0.837595705809
1491495698.57, 0.00566068619112, 0.00536727991917, 0.000444059104021, 0.546183800594, 0.00422122149164, -0.0099433831262, 0.837595705809
1491495698.6, 0.00560316391163, 0.00532457042846, 0.000453204189598, 0.546168545495, 0.00421411797935, -0.00995136016807, 0.83760559427
1491495698.63, 0.00553354933184, 0.0052929013801, 0.00046759695879, 0.54618018133, 0.0042027777538, -0.00992384867128, 0.837598390286
1491495698.66, 0.00545133117228, 0.00526765089444, 0.000491374048857, 0.546180512654, 0.00418175882507, -0.00991539400947, 0.837598379566
1491495698.69, 0.00521951478081, 0.00631854180564, 0.000477346131197, 0.546168248415, 0.00418172778229, -0.00990594895331, 0.837606488604
1491495698.72, 0.00510440660242, 0.006376810325, 0.000502276842646, 0.546168459179, 0.00416138646426, -0.00988807801423, 0.83760666364
1491495698.75, 0.00498561886451, 0.00644418611471, 0.000521087336458, 0.546155556049, 0.0041720563915, -0.0098691423729, 0.837615247337
1491495698.78, 0.00586199803565, 0.00611678998172, 0.000577027156877, 0.546160958686, 0.00420781552367, -0.00987503043004, 0.837611476324
1491495698.81, 0.00583158466841, 0.00614694379266, 0.000605574168611, 0.546155555967, 0.00424328821832, -0.00985726988926, 0.837615029367
1491495698.84, 0.00579483346672, 0.00617334488208, 0.000640216455409, 0.54613210925, 0.00424638550312, -0.00985746025705, 0.837630299078
1491495698.87, 0.00575272918593, 0.00619240105353, 0.00068338052, 0.546119592813, 0.00422071621227, -0.00985726147057, 0.837638591695
1491495698.9, 0.0060915745836, 0.00537889752498, 0.000598730737508, 0.546122246353, 0.0042428325955, -0.00988478227838, 0.837636425599
1491495698.93, 0.00606959249759, 0.00534683376307, 0.000637981840642, 0.546115072716, 0.00424919385561, -0.00987467239711, 0.83764118962
1491495698.96, 0.00577656187011, 0.00638107779884, 0.000289394769963, 0.546135235379, 0.00426354934357, -0.00992339733437, 0.837627395092
1491495698.96, 0.00577656187011, 0.00638107779884, 0.000289394769963, 0.546135235379, 0.00426354934357, -0.00992339733437, 0.837627395092
1491495698.99, 0.00573378879509, 0.00642187546598, 0.000284564599328, 0.546135419431, 0.00426247181954, -0.00992648478109, 0.837627243992
1491495699.02, 0.00569502339217, 0.00646139897987, 0.000276184415109, 0.546155505729, 0.00424875480928, -0.00992501714644, 0.837614234406
1491495699.05, 0.0056489141783, 0.00650244945955, 0.000262620554458, 0.546164567126, 0.00422205874106, -0.00991295400782, 0.837608603811
1491495699.08, 0.00565600732811, 0.00567969912938, 0.000595101837228, 0.546147876941, 0.00413748538365, -0.00992566812648, 0.837619757909
1491495699.11, 0.00560919719908, 0.0056574836017, 0.00061439354244, 0.546126365648, 0.00413259292038, -0.00992131960799, 0.837633859056
1491495699.14, 0.00555701237184, 0.0056300393659, 0.000635616989356, 0.546129267379, 0.00412534640675, -0.00990888318888, 0.837632150089
1491495699.17, 0.00549941733825, 0.00559829024371, 0.000655667683741, 0.546129739068, 0.00411565650304, -0.00991712213618, 0.837631792714
1491495699.2, 0.00560882369116, 0.00539193112656, 0.000654089141882, 0.546097875501, 0.00416506522426, -0.00996429207838, 0.83765176266
1491495699.23, 0.00555941765975, 0.00535284807394, 0.000673084680047, 0.546098167171, 0.00416532784266, -0.00996743442613, 0.837651533818
1491495699.26, 0.00552014920443, 0.00531308145251, 0.000699949794538, 0.546096273161, 0.00418170982179, -0.00997599045307, 0.83765258512
1491495699.29, 0.00575945125392, 0.0050279558478, 0.000564479693137, 0.546126066376, 0.00421002000556, -0.00997042541651, 0.837633085529
1491495699.32, 0.00573246323375, 0.00496516390498, 0.000573291864595, 0.546142146744, 0.00418524445781, -0.00996836744702, 0.837622749768
1491495699.35, 0.00570087284096, 0.00490691817304, 0.00060432734146, 0.546164912523, 0.00416994887826, -0.00996647522221, 0.837608004514
1491495699.38, 0.00567650021278, 0.00484263206113, 0.000620880598434, 0.546165610759, 0.00416299449231, -0.00996240731378, 0.837607632213
1491495699.41, 0.00623977266105, 0.00562400161672, -0.000710219359966, 0.546328360597, 0.00410151248312, -0.00967737140997, 0.837505133408
1491495699.44, 0.00620812390579, 0.0056243671297, -0.000694146194181, 0.546326773645, 0.00411853552089, -0.00967960816712, 0.837506059231
1491495699.47, 0.00623656637743, 0.00527366040371, -0.00101516217591, 0.546330409059, 0.00413919350759, -0.00968506851329, 0.837503522776
1491495699.47, 0.00623656637743, 0.00527366040371, -0.00101516217591, 0.546330409059, 0.00413919350759, -0.00968506851329, 0.837503522776
1491495699.5, 0.00618978293326, 0.00524678748351, -0.00103307163069, 0.546363817504, 0.00411310345126, -0.00970316604985, 0.837481647483
1491495699.53, 0.00615386001889, 0.00522410360328, -0.00104570686183, 0.546344152766, 0.0041262970797, -0.00973719325681, 0.837494016384
1491495699.56, 0.00608955883078, 0.00518683542405, -0.00105442529334, 0.546329285911, 0.00411727620213, -0.00972206797643, 0.837503934789
1491495699.59, 0.00600832321493, 0.00513572015471, -0.00107693884161, 0.546320969402, 0.00410296030937, -0.00971354597398, 0.83750952898
1491495699.62, 0.00677979356125, 0.00535294746707, -0.00190877905211, 0.54633875607, 0.00415986708501, -0.0097290686939, 0.837497465276
1491495699.65, 0.00678023445345, 0.00534114768133, -0.00200800713812, 0.546361904868, 0.00417413219475, -0.00970540415192, 0.837482567376
1491495699.68, 0.00676527497223, 0.00532403728615, -0.00210672364437, 0.546382821373, 0.00419496945653, -0.00968700939912, 0.837469030226
1491495699.71, 0.00639342868495, 0.00533194005303, -0.00249225113789, 0.546446301183, 0.00421155286766, -0.00971757750764, 0.837427173809
1491495699.74, 0.00638323646648, 0.00531714810855, -0.00259834446074, 0.546450479078, 0.00422784210237, -0.00973156569812, 0.837424203075
1491495699.77, 0.00611189399986, 0.00660078043409, -0.00242331211201, 0.546469595534, 0.00424405467658, -0.00972697270344, 0.837411699918
1491495699.77, 0.00611189399986, 0.00660078043409, -0.00242331211201, 0.546469595534, 0.00424405467658, -0.00972697270344, 0.837411699918
1491495699.8, 0.00609025478989, 0.00666318901191, -0.00251738577325, 0.546489349674, 0.00425152367883, -0.00972140242868, 0.837398835427
1491495699.83, 0.00605798234324, 0.00671113295989, -0.00262624701961, 0.546484753772, 0.00424680469971, -0.00971112573541, 0.837401977895
1491495699.86, 0.00601818290333, 0.00675534197402, -0.00272485904095, 0.546444865701, 0.00426887400537, -0.00970258706734, 0.83742799408
1491495699.89, 0.00592179915393, 0.00602778417606, -0.00218728670065, 0.54640165807, 0.004292208078, -0.00974513859814, 0.837455573318
1491495699.92, 0.00588895475619, 0.00602107358608, -0.00223794973166, 0.546381920395, 0.00431167349069, -0.00971345932972, 0.837468718965
1491495699.95, 0.00585199742999, 0.00601425764999, -0.00229887472428, 0.546390675721, 0.00431517208629, -0.00970163506976, 0.837463125786
1491495699.98, 0.00581333722315, 0.00600435180307, -0.00235529340718, 0.546412534384, 0.00428910454719, -0.00969312725952, 0.837449096444
1491495700.01, 0.00624239263, 0.0049847046694, -0.00189898155356, 0.546453130878, 0.00430992641026, -0.0097029699443, 0.837422386053
1491495700.04, 0.00623584229376, 0.00490601634388, -0.00189961158738, 0.546457590289, 0.00428414282437, -0.00972375006951, 0.837419367354
1491495700.07, 0.006875013306, 0.00443832772715, -0.00142676748932, 0.546483452682, 0.00429904605176, -0.00972402274537, 0.837402410749
1491495700.07, 0.006875013306, 0.00443832772715, -0.00142676748932, 0.546483452682, 0.00429904605176, -0.00972402274537, 0.837402410749
1491495700.1, 0.00691889711943, 0.00432497485015, -0.00136515851908, 0.546496828681, 0.0042694678782, -0.00972855307753, 0.837393780214
1491495700.13, 0.00699632370486, 0.00422821971114, -0.00130306437728, 0.54647719795, 0.00428719986395, -0.00973734744834, 0.837406398413
1491495700.16, 0.0070365189193, 0.00410889135008, -0.00118578095943, 0.546497438817, 0.00424979709162, -0.009715147718, 0.837393637721
1491495700.19, 0.00639838323116, 0.005171500022, -0.00143976696434, 0.54643937184, 0.00424914067137, -0.00972531614116, 0.837431415659
1491495700.22, 0.0063976269654, 0.00512428639992, -0.00136130407431, 0.546432529554, 0.00423640645952, -0.00973129777447, 0.837435875365
1491495700.25, 0.00639889265551, 0.00506708341558, -0.00127175674695, 0.546448377429, 0.00422926659346, -0.00968268355081, 0.837426133906
1491495700.28, 0.00644952607552, 0.00503797641622, -0.00121338496174, 0.546419582584, 0.00428271286665, -0.00970286836393, 0.83744441755
1491495700.31, 0.00673663591106, 0.00568768160316, -0.00115769298363, 0.546382198687, 0.00430342159028, -0.00966992487248, 0.837469083653
1491495700.34, 0.00675681781817, 0.00568467123787, -0.00107182441615, 0.54640652708, 0.00428398553814, -0.00963573392251, 0.83745370455
1491495700.37, 0.00652847287509, 0.0072150279953, -0.00137710129433, 0.546393119372, 0.0043200813875, -0.00968124922217, 0.837461742059
1491495700.37, 0.00652847287509, 0.0072150279953, -0.00137710129433, 0.546393119372, 0.0043200813875, -0.00968124922217, 0.837461742059
1491495700.4, 0.00652360300193, 0.00731016729175, -0.00132118730579, 0.546441905628, 0.00429950405801, -0.00967043603469, 0.837430140791
1491495700.43, 0.0065379878593, 0.00741910474025, -0.0013028383524, 0.546455382025, 0.00432980292744, -0.00967429379129, 0.837421146319
1491495700.46, 0.00656260233866, 0.00752316080094, -0.00126363129103, 0.546448601571, 0.00433796309064, -0.00970217301545, 0.837425206067
1491495700.49, 0.00613408227786, 0.00741733533084, -0.00069676846559, 0.546359511943, 0.00428457091098, -0.00953183060376, 0.837485564274
1491495700.52, 0.0060903004123, 0.00750542866146, -0.000697152968829, 0.546317721368, 0.00431002711734, -0.00953227977441, 0.837512690428
1491495700.55, 0.0060297500513, 0.00758439439402, -0.000684693134642, 0.546313358443, 0.00428957871719, -0.00953071451179, 0.837515659186
1491495700.58, 0.00606503924298, 0.00754671323162, -0.000694317494903, 0.546337881548, 0.00432696901419, -0.00954512545058, 0.837499305734
1491495700.58, 0.00606503924298, 0.00754671323162, -0.000694317494903, 0.546337881548, 0.00432696901419, -0.00954512545058, 0.837499305734
1491495700.61, 0.00601142454961, 0.00763159447282, -0.000693539438176, 0.54633805595, 0.00432285186298, -0.00954941794913, 0.837499164292
1491495700.64, 0.00593318761972, 0.00770793984822, -0.000678970463976, 0.54636044169, 0.00430619924819, -0.00953954810625, 0.837484758922
1491495700.67, 0.00584373815829, 0.0077958455125, -0.000689719463128, 0.546365207186, 0.00432269973794, -0.00953676024652, 0.837481596722
1491495700.7, 0.00695062769306, 0.0069908778885, -0.000635535033679, 0.546341358884, 0.00434060206396, -0.00954836786227, 0.837496929796
1491495700.73, 0.00697263124995, 0.00703072992609, -0.000615080707972, 0.546349993973, 0.00430605279763, -0.00955371201871, 0.837491414035
1491495700.76, 0.0069721832273, 0.00707011434627, -0.000610571968848, 0.546358762502, 0.00429504899669, -0.00955644149363, 0.837485719053
1491495700.79, 0.00676137180494, 0.00715785033257, -0.000872664481106, 0.546323741742, 0.00426974664507, -0.00954580637393, 0.837508815508
1491495700.82, 0.00677351503186, 0.00720018428699, -0.000872836826173, 0.546314268719, 0.00425166527054, -0.00956238040346, 0.837514897788
1491495700.85, 0.00678366361544, 0.00723808064078, -0.000878639840606, 0.546344812863, 0.00423342822795, -0.00955986033857, 0.837495094083
1491495700.88, 0.0063043280638, 0.00733368274956, -0.000719493811079, 0.546393771001, 0.00424651990664, -0.0095888326054, 0.837462756407
1491495700.91, 0.0062771610164, 0.00735892945421, -0.000718762956798, 0.546400379964, 0.00424470191248, -0.00958240622047, 0.837458527195
1491495700.94, 0.00625119276415, 0.00739081805911, -0.000707435993688, 0.546389260592, 0.00423206715434, -0.00957353632941, 0.837465947319
1491495700.97, 0.0062347296958, 0.00742996468168, -0.000692275211392, 0.546371598906, 0.00424226494888, -0.0095657166907, 0.837477507854
1491495701.0, 0.0061754262559, 0.00736084525512, -0.000744370028338, 0.546317303166, 0.00419960609842, -0.00956144455362, 0.837513191746
1491495701.02, 0.00617018170215, 0.00741695070831, -0.000737945469225, 0.546218684013, 0.00429167862665, -0.00963077259073, 0.837576252618
1491495701.05, 0.00632163843137, 0.00733047551574, -0.000955655778713, 0.546218801835, 0.00430406925858, -0.0096037661657, 0.837576422295
1491495701.05, 0.00632163843137, 0.00733047551574, -0.000955655778713, 0.546218801835, 0.00430406925858, -0.0096037661657, 0.837576422295
1491495701.08, 0.00631609452662, 0.00737903114624, -0.000969866110879, 0.546147059946, 0.00438111351712, -0.00964504952334, 0.837622330037
1491495701.11, 0.00627544800837, 0.00740530750162, -0.000992977037725, 0.54615724039, 0.00434489885546, -0.00962945470189, 0.837616060153
1491495701.14, 0.00624672035, 0.00743784226542, -0.0010094455221, 0.546105321489, 0.00438510138006, -0.00966286697232, 0.837649316677
1491495701.17, 0.0060593799931, 0.00741641128754, -0.000808082475282, 0.546118373551, 0.00433054355036, -0.00968464530945, 0.837640839565
1491495701.2, 0.00598602666805, 0.00743791987405, -0.000813513648889, 0.546086191562, 0.00436543488332, -0.0097154496623, 0.83766128262
1491495701.23, 0.00592537313826, 0.00745434645034, -0.00081862090443, 0.546071959592, 0.00436831788222, -0.00970661899342, 0.837670647865
1491495701.26, 0.00652993261197, 0.00716060738063, -0.00116474705772, 0.545972756692, 0.00452623266069, -0.00981269291738, 0.837733235121
1491495701.29, 0.00671858008788, 0.00734258840141, -0.00112478432746, 0.545406008493, 0.00514447732924, -0.0102349525473, 0.838093709557
1491495701.32, 0.00712215452569, 0.00771756319433, -0.00100484978451, 0.544298234272, 0.00639625444877, -0.0110730978531, 0.838794317221
1491495701.35, 0.00751028520035, 0.00863207550622, -0.00126888756548, 0.542344112136, 0.00851507395739, -0.0125451231599, 0.840019629194
1491495701.35, 0.00751028520035, 0.00863207550622, -0.00126888756548, 0.542344112136, 0.00851507395739, -0.0125451231599, 0.840019629194
1491495701.38, 0.00858435629046, 0.00964287214102, -0.000998512649175, 0.539362980345, 0.0118153811983, -0.0148432065028, 0.841859638789
1491495701.41, 0.0099376332991, 0.0109013456003, -0.000612119086487, 0.535421127296, 0.0161605888603, -0.0178267163836, 0.84424241779
1491495701.44, 0.0114451695388, 0.0122761692145, -0.000249781479568, 0.531202359176, 0.0207568097201, -0.0210902447371, 0.846728061442
1491495701.47, 0.011594290902, 0.0124006858447, 0.000396150752416, 0.528023259411, 0.0251897509364, -0.0237007527782, 0.84852530209
1491495701.5, 0.0121414730959, 0.0129585997996, 0.000456547307094, 0.526104015148, 0.0271422716471, -0.0250750584708, 0.849617033596
1491495701.53, 0.0119655616497, 0.012932421311, 0.000301259545776, 0.526238112616, 0.026805571488, -0.0248316349763, 0.849551823064
1491495701.56, 0.011036902941, 0.012034873654, 1.34188846259e-05, 0.527630806826, 0.0242286914423, -0.0236729936092, 0.848798145364
1491495701.56, 0.011036902941, 0.012034873654, 1.34188846259e-05, 0.527630806826, 0.0242286914423, -0.0236729936092, 0.848798145364
1491495701.59, 0.0102039727708, 0.0114633899613, -0.000344597881007, 0.529836541459, 0.0214638760297, -0.0218393647142, 0.847546803138
1491495701.62, 0.00958072041304, 0.011019675957, -0.00063178024382, 0.531309063161, 0.0195251242628, -0.0206139546467, 0.846702139952
1491495701.65, 0.00946750630653, 0.0109590548924, -0.000723655407404, 0.531135782387, 0.0194817099347, -0.0207451141538, 0.846808646558
1491495701.68, 0.00949993848627, 0.0118332095237, -0.000343909806282, 0.528972946472, 0.0210313783046, -0.0226103875951, 0.848076690754
1491495701.71, 0.0102842503784, 0.0125683137057, -0.000198944908156, 0.526122838653, 0.0238248892951, -0.0248647054779, 0.849711056607
1491495701.74, 0.0110808037327, 0.0138768321156, 1.54378439516e-05, 0.523661469012, 0.0259892030051, -0.0266610152432, 0.851112458766
1491495701.74, 0.0110808037327, 0.0138768321156, 1.54378439516e-05, 0.523661469012, 0.0259892030051, -0.0266610152432, 0.851112458766
1491495701.77, 0.0116024037627, 0.0144808201864, -6.33231119388e-05, 0.522841908476, 0.0262188976058, -0.0274853842125, 0.851582915402